Vertical_Velocity
-1 1 -2 7 6 16 17 -7 8 11 -1 5 -8 4 -12 3 25 -9 -9 -3 5 2 4 2 1 -0 -0
1 -1 1 -5 -5 3 17 9 18 7 3 15 13 -10 3 -4 -11 -2 -23 38 7 6 1 2 -3 1 -2
1 2 -2 0 -8 -7 -0 10 -6 12 -4 -6 13 1 -5 -1 -6 29 8 -4 2 31 12 -7 4 3 1
1 2 1 -8 -13 3 -1 16 8 -1 4 -7 -17 -2 13 12 -8 1 -4 -11 36 -5 -4 -2 -4 1 -10
1 -0 2 -2 3 26 -1 15 6 3 5 4 -4 -2 -10 5 -9 -20 -10 -5 2 -6 22 2 12 8 -2
4 -0 -2 -1 -2 1 6 4 -8 -6 9 6 0 -6 0 -1 7 -18 -3 -2 2 -2 47 17 14 4 7
-0 5 1 -0 -10 5 6 -0 4 3 -7 -6 -4 9 3 4 -6 1 -3 3 -2 1 4 5 11 4 -4
-0 2 2 -1 -1 -2 -1 2 2 6 2 2 -1 0 1 -1 -6 -3 3 8 2 -1 -1 1 -9 5 11
-2 0 1 2 1 0 6 -7 -2 5 7 0 3 0 -4 0 -0 -2 3 6 2 3 2 27 33 29 8
-2 0 0 2 -2 -0 0 -3 10 4 11 2 3 0 -3 0 -5 -6 -4 -1 10 2 30 19 12 8 15
1 2 1 1 -0 0 -4 -4 3 10 15 11 -3 -3 1 -6 -1 6 2 0 8 8 7 15 20 -4 -0
-1 -0 0 1 1 2 -1 0 1 2 -1 24 8 2 2 -4 0 1 1 1 2 8 4 1 -4 -3 -3
0 0 0 3 0 -5 -4 -2 -6 3 -7 22 6 -2 -2 7 5 1 -1 6 3 7 4 7 1 -0 0
1 1 -2 -1 -1 -1 -3 2 4 19 3 10 0 2 0 1 6 1 4 0 3 -2 1 1 -3 1 1
1 1 0 -1 1 -0 -1 -3 4 7 2 -4 8 -6 12 -1 2 5 3 7 2 -0 1 4 -2 2 2
1 1 1 1 1 -0 1 0 1 -0 8 4 2 3 4 -3 3 -1 -2 6 4 0 -1 1 2 -3 -3
0 0 0 0 -0 2 2 -1 1 5 -4 6 4 4 -3 -5 -4 3 10 3 -0 2 -1 -4 1 -1 4
Height
2902 2906 2911 2915 2920 2921 2924 2934 2934 2939 2947 2951 2955 2961 2966 2969 2974 2985 2993 3005 3014 3022 3031 3039 3045 3051 3058
2899 2902 2907 2913 2916 2922 2928 2929 2932 2937 2945 2947 2952 2957 2963 2969 2975 2984 2992 3001 3009 3018 3026 3033 3041 3046 3052
2895 2899 2903 2910 2915 2918 2921 2927 2931 2934 2939 2945 2947 2955 2960 2970 2975 2982 2986 2994 3004 3015 3021 3028 3035 3042 3049
2891 2895 2900 2906 2913 2918 2924 2924 2929 2931 2936 2940 2945 2952 2958 2966 2976 2978 2985 2991 2998 3011 3017 3023 3031 3037 3044
2885 2890 2896 2900 2907 2911 2916 2919 2925 2929 2936 2940 2946 2951 2958 2963 2971 2977 2987 2994 2999 3005 3012 3017 3025 3031 3038
2879 2885 2890 2896 2902 2907 2913 2917 2922 2930 2935 2939 2944 2952 2956 2962 2967 2978 2987 2991 2996 3003 3004 3011 3020 3027 3033
2872 2878 2886 2893 2898 2903 2909 2916 2921 2926 2931 2940 2945 2949 2954 2958 2967 2973 2979 2986 2992 2998 3003 3008 3014 3022 3028
2868 2874 2881 2887 2894 2901 2907 2913 2918 2924 2931 2936 2942 2947 2951 2954 2961 2967 2974 2980 2986 2993 2996 3001 3008 3010 3019
2864 2869 2876 2883 2890 2897 2904 2910 2915 2921 2926 2932 2937 2942 2949 2953 2958 2962 2969 2976 2982 2987 2991 2995 3001 3010 3015
2859 2865 2871 2877 2884 2893 2900 2905 2912 2918 2923 2929 2933 2939 2943 2949 2954 2960 2967 2973 2978 2983 2987 2990 2999 3008 3014
2854 2860 2865 2872 2880 2887 2894 2902 2910 2916 2921 2928 2932 2938 2942 2946 2953 2958 2963 2970 2976 2980 2986 2993 2999 3005 3011
2849 2854 2860 2867 2874 2882 2891 2898 2905 2911 2919 2925 2931 2937 2942 2947 2952 2956 2963 2970 2976 2980 2984 2990 2997 3002 3007
2845 2850 2856 2863 2869 2877 2886 2893 2900 2908 2915 2922 2929 2937 2941 2948 2952 2957 2962 2968 2973 2979 2984 2989 2993 2999 3002
2841 2846 2851 2858 2865 2873 2883 2891 2898 2904 2912 2918 2926 2932 2938 2945 2951 2957 2962 2967 2970 2976 2982 2985 2990 2995 2998
2835 2840 2846 2853 2861 2869 2878 2886 2893 2900 2907 2915 2921 2928 2936 2943 2948 2953 2958 2963 2968 2974 2979 2983 2987 2990 2993
2830 2835 2842 2849 2856 2865 2873 2882 2890 2896 2902 2913 2918 2922 2930 2937 2944 2951 2956 2962 2965 2969 2974 2978 2981 2985 2989
2825 2831 2837 2845 2852 2860 2868 2877 2885 2892 2901 2909 2914 2921 2927 2934 2941 2946 2954 2958 2961 2967 2970 2975 2979 2983 2986